{"data":{"norad_id":42939,"intl_designator":"2017-055A","name":"COSMOS 2522 (752)","alt_names":[],"object_type":"PAYLOAD","status":"ACTIVE","operator":null,"country":"CIS","launch_date":"2017-09-22","launch_site_code":"PLMSC","launch_vehicle":null,"mission":null,"orbit_class":"UNKNOWN","rcs_meters":null,"size_class":null,"mass_kg":null,"dimensions":null,"purposes":["nav"],"wikipedia_slug":null,"has_3d_model":false,"image_url":null,"decayed_at":null,"tle_current":{"epoch":"2026-09-19T21:55:03.244800Z","epoch_age_seconds":65156,"freshness":"FRESH","line1":"1 42939U 17055A   26262.91323200 -.00000013  00000+0  00000+0 0  9996","line2":"2 42939  64.0794 188.6622 0009277 236.0970 123.8276  2.13102003 69998","mean_motion":2.13102003,"eccentricity":0.0009277,"inclination_deg":64.0794,"raan_deg":188.6622,"arg_perigee_deg":236.097,"mean_anomaly_deg":123.8276,"bstar":0,"rev_number":6999,"period_min":675.73273818548,"perigee_km":19106.223394095,"apogee_km":19153.550982173,"semimajor_km":25508.024188134,"source":"CELESTRAK","updated_at":"2026-09-20T09:00:46.277101Z"}}}